TimeCST,TemperatureF,Dew PointF,Humidity,Sea Level PressureIn,VisibilityMPH,Wind Direction,Wind SpeedMPH,Gust SpeedMPH,PrecipitationIn,Events,Conditions,WindDirDegrees,DateUTC
12:15 AM,6.8,1.4,79,30.06,10.0,ESE,6.9,-,N/A,,Overcast,110,2013-12-16 06:15:00
12:35 AM,6.8,1.4,79,30.06,10.0,ESE,5.8,-,N/A,,Overcast,110,2013-12-16 06:35:00
12:55 AM,6.8,1.4,79,30.06,10.0,ESE,6.9,-,N/A,,Overcast,110,2013-12-16 06:55:00
1:15 AM,6.8,3.2,85,30.05,10.0,ESE,6.9,-,N/A,,Overcast,110,2013-12-16 07:15:00
1:35 AM,6.8,3.2,85,30.06,10.0,East,5.8,-,N/A,,Overcast,100,2013-12-16 07:35:00
1:55 AM,6.8,3.2,85,30.05,10.0,ESE,6.9,-,N/A,,Overcast,110,2013-12-16 07:55:00
2:15 AM,8.6,3.2,79,30.04,10.0,SE,8.1,-,N/A,,Overcast,130,2013-12-16 08:15:00
2:35 AM,8.6,3.2,79,30.05,10.0,SE,6.9,-,N/A,,Overcast,130,2013-12-16 08:35:00
2:55 AM,8.6,3.2,79,30.05,10.0,SE,5.8,-,N/A,Snow,Light Snow,130,2013-12-16 08:55:00
3:15 AM,8.6,3.2,79,30.05,10.0,SSE,6.9,-,N/A,,Overcast,150,2013-12-16 09:15:00
3:35 AM,8.6,5.0,85,30.02,4.0,SE,9.2,-,N/A,Snow,Light Snow,140,2013-12-16 09:35:00
3:55 AM,8.6,5.0,85,30.01,10.0,SE,9.2,-,N/A,Snow,Light Snow,140,2013-12-16 09:55:00
4:15 AM,10.4,6.8,85,30.01,10.0,SSE,9.2,-,N/A,Snow,Light Snow,150,2013-12-16 10:15:00
4:35 AM,10.4,6.8,85,30.01,7.0,SSE,9.2,-,N/A,Snow,Light Snow,150,2013-12-16 10:35:00
4:55 AM,10.4,6.8,85,29.99,7.0,SE,9.2,-,N/A,Snow,Light Snow,140,2013-12-16 10:55:00
5:15 AM,10.4,6.8,85,29.99,7.0,SSE,8.1,-,N/A,Snow,Light Snow,150,2013-12-16 11:15:00
5:35 AM,10.4,6.8,85,29.97,10.0,SE,11.5,-,N/A,Snow,Light Snow,140,2013-12-16 11:35:00
5:55 AM,10.4,6.8,85,29.99,10.0,SE,5.8,-,N/A,Snow,Light Snow,140,2013-12-16 11:55:00
6:15 AM,10.4,6.8,85,29.98,10.0,SSE,8.1,-,N/A,Snow,Light Snow,150,2013-12-16 12:15:00
6:35 AM,10.4,8.6,92,29.97,10.0,SSE,10.4,-,N/A,Snow,Light Snow,150,2013-12-16 12:35:00
6:55 AM,10.4,8.6,92,29.97,10.0,SSE,10.4,-,N/A,Snow,Light Snow,160,2013-12-16 12:55:00
7:15 AM,10.4,8.6,92,29.95,10.0,SSE,11.5,-,N/A,,Overcast,160,2013-12-16 13:15:00
7:35 AM,10.4,8.6,92,29.96,7.0,South,11.5,-,N/A,,Overcast,170,2013-12-16 13:35:00
7:54 AM,12.2,8.6,85,29.95,10.0,SSE,12.7,-,N/A,,Overcast,160,2013-12-16 13:54:00
8:15 AM,12.2,8.6,85,29.97,10.0,South,9.2,-,N/A,Snow,Light Snow,170,2013-12-16 14:15:00
8:35 AM,12.2,8.6,85,29.97,10.0,South,9.2,-,N/A,Snow,Light Snow,170,2013-12-16 14:35:00
8:55 AM,12.2,8.6,85,29.96,10.0,South,9.2,-,N/A,Snow,Light Snow,170,2013-12-16 14:55:00
9:15 AM,12.2,8.6,85,29.97,7.0,SSE,9.2,-,N/A,Snow,Light Snow,160,2013-12-16 15:15:00
9:35 AM,12.2,10.4,92,29.97,10.0,SSE,9.2,-,N/A,,Mostly Cloudy,160,2013-12-16 15:35:00
9:55 AM,14.0,10.4,86,29.97,10.0,South,10.4,-,N/A,,Mostly Cloudy,170,2013-12-16 15:55:00
10:15 AM,14.0,10.4,86,29.97,10.0,South,8.1,-,N/A,,Overcast,170,2013-12-16 16:15:00
10:35 AM,15.8,10.4,79,29.98,10.0,South,9.2,-,N/A,,Overcast,170,2013-12-16 16:35:00
10:55 AM,15.8,10.4,79,29.96,10.0,South,9.2,-,N/A,,Overcast,170,2013-12-16 16:55:00
11:15 AM,15.8,10.4,79,29.96,10.0,South,10.4,-,N/A,,Overcast,180,2013-12-16 17:15:00
11:35 AM,15.8,10.4,79,29.97,10.0,SSW,8.1,-,N/A,,Overcast,200,2013-12-16 17:35:00
11:55 AM,17.6,12.2,79,29.97,10.0,SSW,9.2,-,N/A,,Overcast,210,2013-12-16 17:55:00
12:15 PM,17.6,12.2,79,29.97,10.0,SW,10.4,-,N/A,,Overcast,220,2013-12-16 18:15:00
12:35 PM,17.6,12.2,79,29.95,10.0,SW,9.2,-,N/A,,Overcast,230,2013-12-16 18:35:00
12:55 PM,17.6,12.2,79,29.95,10.0,WSW,10.4,-,N/A,,Overcast,250,2013-12-16 18:55:00
1:15 PM,17.6,12.2,79,29.96,10.0,WSW,11.5,-,N/A,,Mostly Cloudy,250,2013-12-16 19:15:00
1:35 PM,19.4,14.0,80,29.97,10.0,West,13.8,-,N/A,,Scattered Clouds,270,2013-12-16 19:35:00
1:54 PM,19.4,15.8,86,29.96,10.0,West,9.2,-,N/A,,Mostly Cloudy,270,2013-12-16 19:54:00
2:15 PM,19.4,15.8,86,29.97,10.0,West,11.5,-,N/A,,Overcast,270,2013-12-16 20:15:00
2:35 PM,21.2,15.8,80,29.97,10.0,West,10.4,-,N/A,,Overcast,270,2013-12-16 20:35:00
2:54 PM,19.4,15.8,86,29.97,7.0,West,8.1,-,N/A,,Mostly Cloudy,270,2013-12-16 20:54:00
3:15 PM,19.4,15.8,86,29.99,7.0,West,6.9,-,N/A,,Clear,260,2013-12-16 21:15:00
3:34 PM,19.4,15.8,86,29.99,7.0,West,4.6,-,N/A,,Clear,260,2013-12-16 21:34:00
3:55 PM,19.4,15.8,86,29.99,7.0,SW,3.5,-,N/A,,Clear,230,2013-12-16 21:55:00
4:15 PM,17.6,15.8,93,30.00,7.0,SSW,5.8,-,N/A,,Clear,210,2013-12-16 22:15:00
4:34 PM,15.8,12.2,86,30.00,7.0,SSW,3.5,-,N/A,,Clear,200,2013-12-16 22:34:00
4:55 PM,14.0,12.2,93,30.00,7.0,WSW,6.9,-,N/A,,Clear,240,2013-12-16 22:55:00
5:15 PM,14.0,10.4,86,30.01,10.0,SW,8.1,-,N/A,,Clear,220,2013-12-16 23:15:00
5:35 PM,12.2,10.4,92,30.01,10.0,SW,8.1,-,N/A,,Clear,220,2013-12-16 23:35:00
5:55 PM,15.8,12.2,86,30.01,10.0,SW,8.1,-,N/A,,Clear,230,2013-12-16 23:55:00
6:15 PM,14.0,10.4,86,30.01,10.0,SW,9.2,-,N/A,,Clear,230,2013-12-17 00:15:00
6:35 PM,12.2,10.4,92,30.01,10.0,SW,8.1,-,N/A,,Clear,230,2013-12-17 00:35:00
6:55 PM,15.8,12.2,86,30.00,10.0,SW,10.4,-,N/A,,Clear,230,2013-12-17 00:55:00
7:15 PM,15.8,12.2,86,30.00,10.0,SW,10.4,-,N/A,,Clear,230,2013-12-17 01:15:00
7:35 PM,17.6,14.0,86,30.00,10.0,SW,9.2,-,N/A,,Clear,220,2013-12-17 01:35:00
7:55 PM,21.2,17.6,86,29.99,10.0,SW,8.1,-,N/A,,Clear,230,2013-12-17 01:55:00
8:15 PM,21.2,17.6,86,29.99,10.0,SW,9.2,-,N/A,,Clear,230,2013-12-17 02:15:00
8:35 PM,23.0,19.4,86,29.99,10.0,SW,11.5,-,N/A,,Clear,230,2013-12-17 02:35:00
8:55 PM,24.8,19.4,80,29.99,10.0,SW,10.4,-,N/A,,Clear,230,2013-12-17 02:55:00
9:15 PM,24.8,19.4,80,30.00,10.0,WSW,11.5,-,N/A,,Clear,240,2013-12-17 03:15:00
9:34 PM,26.6,21.2,80,30.00,10.0,WSW,15.0,-,N/A,,Clear,240,2013-12-17 03:34:00
9:55 PM,28.4,21.2,74,29.99,10.0,WSW,15.0,-,N/A,,Clear,240,2013-12-17 03:55:00
10:15 PM,28.4,21.2,74,30.00,10.0,WSW,16.1,-,N/A,,Clear,250,2013-12-17 04:15:00
10:34 PM,28.4,21.2,74,30.00,10.0,WSW,16.1,-,N/A,,Clear,240,2013-12-17 04:34:00
10:55 PM,28.4,23.0,80,29.99,10.0,WSW,15.0,-,N/A,,Clear,240,2013-12-17 04:55:00
11:14 PM,28.4,23.0,80,29.99,10.0,WSW,16.1,-,N/A,,Clear,250,2013-12-17 05:14:00
11:35 PM,28.4,23.0,80,29.99,10.0,WSW,17.3,-,N/A,,Clear,250,2013-12-17 05:35:00
11:55 PM,30.2,23.0,75,29.98,10.0,WSW,17.3,-,N/A,,Clear,250,2013-12-17 05:55:00